User: anonymous   Login
Location: Doverdale
(52.2833°N, 2.2000°W)
Time: 02:57:07
(UTC+00:00)
Language:

Cosmos 1844 Rocket - Orbit

View from above orbital plane
View from above orbital plane
View from above satellite
View from above satellite

Ground track
Ground track

The orbit data is extracted from the following two-line orbital elements,

1 17974U 87041B   21015.48947587 -.00000125  00000-0 -38310-4 0  9998
2 17974  71.0083  33.3086 0014903 204.7383 316.6794 14.17271119741828
Epoch (UTC): 15 January 2021 11:44:50
Eccentricity: 0.0014903
inclination: 71.0083°
perigee height: 824 km
apogee height: 845 km
right ascension of ascending node: 33.3086°
argument of perigee: 204.7383°
revolutions per day: 14.17271119
mean anomaly at epoch: 316.6794°
orbit number at epoch: 74182

The dashed part of the orbit path shows where the satellite is in the earth's shadow,  

DLR